When you browse on this site, cookies collect data to enhance your experience and personalize the content and advertising you see.
Visit our Privacy Policy to learn more. By continuing to use the site, you agree to this use of cookies and data.
  • In United Kingdom
  • List of Countries
  • For 7 days
  • Water Temperature
  • Satellite Maps
  • Weather Map
  • Weather Widgets
  • user-avatar
    Login

    Hourly Weather Kabul

    Today, 21 May, Tuesday

    Time Temperature Precipitation Wind Pressure Humidity
    00:00 +19°C° 0 mm 2 mps 612 mmHg 36%
    01:00 +19°C° 0 mm 1 mps 611 mmHg 39%
    02:00 +18°C° 0 mm 1 mps 611 mmHg 42%
    03:00 +18°C° 0 mm 1 mps 611 mmHg 44%
    04:00 +16°C° 0 mm 1 mps 610 mmHg 47%
    05:00 +14°C° 0 mm 0 mps 610 mmHg 49%
    06:00 +16°C° 0 mm 0 mps 611 mmHg 44%
    07:00 +17°C° 0 mm 0 mps 611 mmHg 39%
    08:00 +20°C° 0 mm 1 mps 612 mmHg 34%
    09:00 +21°C° 0 mm 1 mps 612 mmHg 31%
    10:00 +23°C° 0 mm 1 mps 612 mmHg 29%
    11:00 +24°C° 0 mm 1 mps 613 mmHg 26%
    12:00 +25°C° 0 mm 2 mps 613 mmHg 24%
    13:00 +25°C° 0 mm 2 mps 613 mmHg 22%
    14:00 +26°C° 0 mm 2 mps 612 mmHg 21%
    15:00 +26°C° 0.1 mm 2 mps 612 mmHg 21%
    16:00 +26°C° 0.1 mm 2 mps 612 mmHg 21%
    17:00 +26°C° 0.1 mm 2 mps 612 mmHg 21%
    18:00 +25°C° 0 mm 2 mps 612 mmHg 23%
    19:00 +24°C° 0 mm 3 mps 612 mmHg 24%
    20:00 +24°C° 0 mm 3 mps 612 mmHg 26%
    21:00 +22°C° 0 mm 3 mps 612 mmHg 30%
    22:00 +21°C° 0 mm 3 mps 612 mmHg 33%
    23:00 +20°C° 0 mm 3 mps 611 mmHg 36%

    Tomorrow, 22 May, Wednesday

    Time Temperature Precipitation Wind Pressure Humidity
    00:00 +19°C° 0 mm 2 mps 611 mmHg 39%
    01:00 +18°C° 0 mm 2 mps 611 mmHg 41%
    02:00 +19°C° 0 mm 1 mps 610 mmHg 44%
    03:00 +18°C° 0 mm 1 mps 610 mmHg 45%
    04:00 +18°C° 0 mm 1 mps 610 mmHg 46%
    05:00 +16°C° 0 mm 1 mps 609 mmHg 47%
    06:00 +18°C° 0 mm 1 mps 610 mmHg 43%
    07:00 +18°C° 0 mm 2 mps 610 mmHg 38%
    08:00 +19°C° 0 mm 2 mps 611 mmHg 34%
    09:00 +20°C° 0 mm 2 mps 611 mmHg 32%
    10:00 +21°C° 0 mm 2 mps 611 mmHg 29%
    11:00 +23°C° 0 mm 2 mps 611 mmHg 26%
    12:00 +24°C° 0 mm 2 mps 611 mmHg 26%
    13:00 +24°C° 0 mm 1 mps 611 mmHg 25%
    14:00 +24°C° 0 mm 1 mps 611 mmHg 25%
    15:00 +24°C° 0.2 mm 1 mps 611 mmHg 26%
    16:00 +24°C° 0.2 mm 2 mps 610 mmHg 28%
    17:00 +24°C° 0.2 mm 2 mps 610 mmHg 29%
    18:00 +21°C° 0.5 mm 3 mps 610 mmHg 33%
    19:00 +20°C° 0.5 mm 3 mps 610 mmHg 37%
    20:00 +19°C° 0.5 mm 3 mps 610 mmHg 40%
    21:00 +18°C° 0.2 mm 3 mps 610 mmHg 41%
    22:00 +18°C° 0.2 mm 3 mps 610 mmHg 42%
    23:00 +17°C° 0.2 mm 3 mps 609 mmHg 43%

    Day after tomorrow, 23 May, Thursday

    Time Temperature Precipitation Wind Pressure Humidity
    00:00 +17°C° 0.1 mm 3 mps 609 mmHg 44%
    01:00 +16°C° 0.1 mm 2 mps 609 mmHg 46%
    02:00 +16°C° 0.1 mm 2 mps 608 mmHg 47%
    03:00 +15°C° 0 mm 2 mps 608 mmHg 48%
    04:00 +15°C° 0 mm 2 mps 607 mmHg 50%
    05:00 +15°C° 0 mm 2 mps 607 mmHg 52%
    06:00 +15°C° 0 mm 1 mps 608 mmHg 50%
    07:00 +16°C° 0 mm 1 mps 608 mmHg 48%
    08:00 +16°C° 0 mm 1 mps 608 mmHg 46%
    09:00 +19°C° 0 mm 1 mps 609 mmHg 43%
    10:00 +19°C° 0 mm 2 mps 609 mmHg 41%
    11:00 +20°C° 0 mm 2 mps 610 mmHg 39%
    12:00 +21°C° 0.1 mm 2 mps 609 mmHg 37%
    13:00 +23°C° 0.1 mm 2 mps 609 mmHg 36%
    14:00 +23°C° 0.1 mm 2 mps 609 mmHg 35%
    15:00 +22°C° 0.4 mm 3 mps 609 mmHg 37%
    16:00 +21°C° 0.4 mm 3 mps 609 mmHg 40%
    17:00 +21°C° 0.4 mm 4 mps 608 mmHg 42%
    18:00 +20°C° 1.2 mm 3 mps 608 mmHg 49%
    19:00 +19°C° 1.2 mm 3 mps 608 mmHg 55%
    20:00 +17°C° 1.2 mm 3 mps 608 mmHg 62%
    21:00 +17°C° 0.1 mm 3 mps 608 mmHg 63%
    22:00 +17°C° 0.1 mm 3 mps 608 mmHg 65%
    23:00 +16°C° 0.1 mm 3 mps 608 mmHg 66%

    24 May, Friday

    Time Temperature Precipitation Wind Pressure Humidity
    00:00 +16°C° 0.1 mm 2 mps 608 mmHg 65%
    01:00 +16°C° 0.1 mm 2 mps 608 mmHg 64%
    02:00 +15°C° 0.1 mm 2 mps 607 mmHg 64%
    03:00 +15°C° 0.1 mm 2 mps 607 mmHg 63%
    04:00 +15°C° 0.1 mm 2 mps 607 mmHg 62%
    05:00 +15°C° 0.1 mm 2 mps 607 mmHg 61%
    06:00 +15°C° 0.1 mm 2 mps 608 mmHg 58%
    07:00 +16°C° 0.1 mm 2 mps 608 mmHg 54%
    08:00 +16°C° 0.1 mm 2 mps 608 mmHg 51%
    09:00 +17°C° 0.1 mm 2 mps 609 mmHg 48%
    10:00 +18°C° 0.1 mm 2 mps 609 mmHg 45%
    11:00 +19°C° 0.1 mm 2 mps 609 mmHg 43%
    12:00 +20°C° 0.1 mm 2 mps 609 mmHg 40%
    13:00 +20°C° 0.1 mm 2 mps 609 mmHg 38%
    14:00 +21°C° 0.1 mm 2 mps 609 mmHg 36%
    15:00 +21°C° 0.1 mm 3 mps 609 mmHg 37%
    16:00 +21°C° 0.1 mm 3 mps 609 mmHg 37%
    17:00 +21°C° 0.1 mm 3 mps 609 mmHg 38%
    18:00 +20°C° 0.1 mm 3 mps 609 mmHg 40%
    19:00 +20°C° 0.1 mm 2 mps 609 mmHg 42%
    20:00 +19°C° 0.1 mm 2 mps 610 mmHg 44%
    21:00 +18°C° 0 mm 2 mps 610 mmHg 44%
    22:00 +18°C° 0 mm 2 mps 610 mmHg 44%
    23:00 +18°C° 0 mm 1 mps 610 mmHg 45%

    25 May, Saturday

    Time Temperature Precipitation Wind Pressure Humidity
    00:00 +18°C° 0 mm 1 mps 610 mmHg 47%
    01:00 +16°C° 0 mm 1 mps 609 mmHg 48%
    02:00 +16°C° 0 mm 1 mps 609 mmHg 50%
    03:00 +15°C° 0 mm 1 mps 609 mmHg 51%
    04:00 +15°C° 0 mm 1 mps 608 mmHg 53%
    05:00 +15°C° 0 mm 1 mps 608 mmHg 54%
    06:00 +16°C° 0 mm 2 mps 609 mmHg 49%
    07:00 +17°C° 0 mm 2 mps 610 mmHg 45%
    08:00 +18°C° 0 mm 2 mps 610 mmHg 40%
    09:00 +19°C° 0 mm 2 mps 610 mmHg 37%
    10:00 +20°C° 0 mm 3 mps 611 mmHg 33%
    11:00 +21°C° 0 mm 3 mps 611 mmHg 30%
    12:00 +21°C° 0 mm 3 mps 611 mmHg 28%
    13:00 +22°C° 0 mm 4 mps 611 mmHg 26%
    14:00 +23°C° 0 mm 4 mps 610 mmHg 24%
    15:00 +23°C° 0 mm 5 mps 610 mmHg 24%
    16:00 +22°C° 0 mm 6 mps 610 mmHg 23%
    17:00 +22°C° 0 mm 6 mps 610 mmHg 23%
    18:00 +21°C° 0 mm 6 mps 610 mmHg 25%
    19:00 +20°C° 0 mm 5 mps 610 mmHg 27%
    20:00 +19°C° 0 mm 4 mps 610 mmHg 30%
    21:00 +18°C° 0 mm 4 mps 610 mmHg 32%
    22:00 +17°C° 0 mm 3 mps 610 mmHg 34%
    23:00 +16°C° 0 mm 2 mps 610 mmHg 36%

    26 May, Sunday

    Time Temperature Precipitation Wind Pressure Humidity
    00:00 +16°C° 0 mm 2 mps 609 mmHg 38%
    01:00 +15°C° 0 mm 2 mps 609 mmHg 39%
    02:00 +15°C° 0 mm 2 mps 608 mmHg 41%
    03:00 +14°C° 0 mm 2 mps 608 mmHg 41%
    04:00 +14°C° 0 mm 2 mps 608 mmHg 42%
    05:00 +13°C° 0 mm 2 mps 608 mmHg 43%
    06:00 +14°C° 0 mm 2 mps 609 mmHg 39%
    07:00 +15°C° 0 mm 2 mps 609 mmHg 36%
    08:00 +16°C° 0 mm 2 mps 610 mmHg 32%
    09:00 +17°C° 0 mm 2 mps 610 mmHg 30%
    10:00 +18°C° 0 mm 3 mps 610 mmHg 27%
    11:00 +19°C° 0 mm 3 mps 611 mmHg 25%
    12:00 +20°C° 0 mm 3 mps 611 mmHg 23%
    13:00 +21°C° 0 mm 3 mps 611 mmHg 22%
    14:00 +22°C° 0 mm 3 mps 611 mmHg 20%
    15:00 +22°C° 0 mm 4 mps 610 mmHg 21%
    16:00 +22°C° 0 mm 5 mps 610 mmHg 21%
    17:00 +21°C° 0 mm 5 mps 610 mmHg 22%
    18:00 +20°C° 0 mm 5 mps 610 mmHg 24%
    19:00 +19°C° 0 mm 4 mps 610 mmHg 27%
    20:00 +18°C° 0 mm 4 mps 610 mmHg 29%
    21:00 +18°C° 0 mm 3 mps 610 mmHg 31%
    22:00 +17°C° 0 mm 3 mps 610 mmHg 33%
    23:00 +16°C° 0 mm 2 mps 610 mmHg 36%
    Show more